Regional Weather Roundup
Issued by NWS

Home | Current Version | Previous Version | Graphics & Text | Print | Product List | Glossary Off
Versions: 1 2 3 4 5 6 7 8 9 10 11 12 13 14 15 16 17 18 19 20 21 22 23 24 25 26 27 28 29 30 31 32 33 34 35 36 37 38 39 40 41 42 43 44 45 46 47 48 49 50

000
ASUS43 KDMX 191107
RWRIA

WEATHER ROUNDUP FOR IOWA
NATIONAL WEATHER SERVICE DES MOINES IA
600 AM CDT SUN APR 19 2015

NOTE: "FAIR" INDICATES FEW OR NO CLOUDS BELOW 12,000 FEET WITH NO
SIGNIFICANT WEATHER AND/OR OBSTRUCTIONS TO VISIBILITY.

* - THESE STATIONS ARE NOT NWS STATIONS...THUS NOT UNDER NWS
QUALITY CONTROL.  THEY ALSO DO NOT REPORT WEATHER SUCH
AS PRECIPITATION OR FOG.

IAZ001>003-012>014-020>022-031>034-043>046-191200-
   NORTHWEST IOWA

CITY           SKY/WX    TMP DP  RH WIND       PRES   REMARKS
CARROLL *      CLOUDY    54  54 100 CALM      29.73F FOG
CHEROKEE *     CLOUDY    54  54 100 SW5       29.72S FOG
DENISON *      FOG       55  55 100 S5        29.72S VSB 0
LE MARS *      CLOUDY    55  55 100 CALM      29.73S FOG
ORANGE CITY *  CLOUDY   N/A N/A N/A W5        29.72F FOG
SHELDON *      CLOUDY    54  54 100 SW8       29.71F FOG
SIOUX CITY     FOG       55  53  93 CALM      29.73S VSB 1/2
SPENCER        CLOUDY    53  52  96 S6        29.72F
STORM LAKE *   FOG       54  54 100 S9        29.73F VSB 1/4
$$

IAZ055>058-069>071-079>083-090>094-191200-
   SOUTHWEST IOWA

CITY           SKY/WX    TMP DP  RH WIND       PRES   REMARKS
ATLANTIC *     FOG       55  55 100 CALM      29.73F VSB 0
AUDUBON *      FOG       55  52  88 CALM      29.74F VSB 1/2
CLARINDA *     LGT RAIN  55  55 100 CALM      29.74F
COUNCIL BLFS * FOG       54  54 100 CALM      29.74S VSB 0
CRESTON *      FOG       57  57 100 CALM      29.74F VSB 1/4
HARLAN  *      FOG       55  55 100 CALM      29.76F VSB 0
LAMONI         FOG       57  56  96 NE3       29.73F VSB 1/4
RED OAK *      CLOUDY    55  55 100 E3        29.73S FOG
SHENANDOAH *   FOG       55  55 100 CALM      29.73F VSB 1/4
$$

IAZ047>049-059>061-072>074-084-191200-
   CENTRAL IOWA

CITY           SKY/WX    TMP DP  RH WIND       PRES   REMARKS
AMES           CLOUDY    56  55  97 S5        29.75S FOG
ANKENY *       CLOUDY    57  57 100 CALM      29.75F
CHARITON *     CLOUDY    55  55 100 CALM      29.75S FOG
DES MOINES     LGT RAIN  59  56  89 E5        29.75F
GRINNELL*      PTCLDY    55  54  94 E5        29.76F FOG
KNOXVILLE *    CLOUDY    55  55 100 NW5       29.74S FOG
MARSHALLTOWN   CLOUDY    56  55  97 SE3       29.75S FOG
PELLA *        PTCLDY    55  55 100 E3        29.76S FOG
PERRY *        CLOUDY    57  55  94 CALM      29.74F FOG
$$

IAZ004>006-015-016-023>025-035-036-191200-
   NORTH CENTRAL IOWA

CITY           SKY/WX    TMP DP  RH WIND       PRES   REMARKS
ALGONA *       CLOUDY    55  55 100 S8        29.74F FOG
CLARION *      CLOUDY    55  55 100 S12       29.75S
ESTHERVILLE    CLOUDY    52  52 100 S8        29.72S FOG
FORT DODGE *   CLOUDY    55  54  94 S3        29.75F
MASON CITY     CLOUDY    52  32  46 S13       29.77S
FOREST CITY *  HVY RAIN  52  52 100 SE8       29.75S
IOWA FALLS *   CLOUDY    55  54  94 SE5       29.77S FOG
$$

IAZ007>011-017>019-026>030-037>042-050>054-066-191200-
   NORTHEAST IOWA

CITY           SKY/WX    TMP DP  RH WIND       PRES   REMARKS
CEDAR RAPIDS   CLOUDY    51  44  77 E6        29.77F
CHARLES CITY * CLOUDY    50  50 100 SE12      29.77S
CLINTON *      MOCLDY    52  41  66 E8        29.82F
DECORAH *      CLOUDY    50  39  66 SE9       29.77F
DUBUQUE        CLOUDY    51  40  65 SE6       29.81F
MONTICELLO *   CLOUDY    54  43  66 SE14      29.78F
OELWEIN *      CLOUDY    52  43  71 SE12      29.78F
WATERLOO       CLOUDY    51  45  79 E8        29.76F
$$

IAZ064-065-067-068-078-191200-
   EAST CENTRAL IOWA

CITY           SKY/WX    TMP DP  RH WIND       PRES   REMARKS
DAVENPORT      MOCLDY    48  38  68 NE6       29.80F
IOWA CITY      CLOUDY    53  49  86 NE5       29.79F
MT. PLEASANT * CLOUDY    57  57 100 NE6       29.76F FOG
MUSCATINE *    PTCLDY    54  45  71 W3        29.78F
QUAD CITIES    CLOUDY    52  40  63 E6        29.79F
$$

IAZ062-063-075>077-085>089-095>099-191200-
   SOUTHEAST IOWA

CITY           SKY/WX    TMP DP  RH WIND       PRES   REMARKS
BURLINGTON     PTCLDY    56  52  86 NE6       29.76F
FAIRFIELD *    RAIN      59  55  88 E6        29.74F
FORT MADISON * LGT RAIN  57  55  94 N5        29.76F
KEOKUK *       PTCLDY    59  57  94 NE7       29.73F
OSKALOOSA *    RAIN      55  54  94 E5        29.76S
CENTERVILLE *  LGT RAIN  55  55 100 CALM      29.75F
OTTUMWA        LGT RAIN  57  56  96 NE6       29.74F
WASHINGTON *   LGT RAIN  57  57 100 E6        29.77F
$$

ABBREVIATIONS USED IN REMARKS
   TC - TEMPERATURES IN CELSIUS
  WCI - WIND CHILL INDEX
   HX - HEAT INDEX
  VSB - VISIBILITY
$$




USA.gov is the U.S. government's official web portal to all federal, state and local government web resources and services.